^^
Meteo Knjazevac Station Historical Data
Daily Summary for January 11, 2022 Units:  Metric    English   Both
Daily Weekly Monthly Yearly Custom
  High: Low: Average:
Temperature: 19.2 °C 15.8 °C 18.1 °C
Dew Point: 19.1 °C 15.7 °C 17.9 °C
Humidity: 99% 99% 99%
Wind Speed: 9.3km/h 1.6km/h 2.9km/h
Wind Gust: 9.7km/h - -
Wind- - SSE
Pressure: 1019.9 hPa 1019.2 hPa -
Precipitation: 0 mm    
Historical Graphs
 
 
Tabular Data for January 11, 2022
Time Temperature Dew Point Pressure Wind Wind Speed Wind Gust Humidity Rainfall Rate (Hourly) solar Conditions
00:05 19.2 °C 19.1 °C 1019.9 hPa SSW 1.6 km/h 1.6 km/h 99% 0 mm 0 W/m2
00:10 19.2 °C 19.1 °C 1019.9 hPa SSW 1.6 km/h 1.6 km/h 99% 0 mm 0 W/m2
00:15 19.2 °C 19.1 °C 1019.9 hPa SSW 1.6 km/h 1.6 km/h 99% 0 mm 0 W/m2
00:20 19.2 °C 19.1 °C 1019.9 hPa SSW 1.6 km/h 1.6 km/h 99% 0 mm 0 W/m2
00:25 19.2 °C 19.1 °C 1019.9 hPa SSW 1.6 km/h 1.6 km/h 99% 0 mm 0 W/m2
00:30 19.2 °C 19.1 °C 1019.9 hPa SSW 1.6 km/h 1.6 km/h 99% 0 mm 0 W/m2
00:35 19.2 °C 19.1 °C 1019.9 hPa SSW 1.6 km/h 1.6 km/h 99% 0 mm 0 W/m2
00:40 19.2 °C 19.1 °C 1019.9 hPa SSW 1.6 km/h 1.6 km/h 99% 0 mm 0 W/m2
00:45 19.2 °C 19.1 °C 1019.9 hPa SSW 1.6 km/h 1.6 km/h 99% 0 mm 0 W/m2
00:50 19.2 °C 19.1 °C 1019.9 hPa SSW 1.6 km/h 1.6 km/h 99% 0 mm 0 W/m2
00:55 19.2 °C 19.1 °C 1019.9 hPa SSW 1.6 km/h 1.6 km/h 99% 0 mm 0 W/m2
01:00 19.2 °C 19.1 °C 1019.9 hPa SSW 1.6 km/h 1.6 km/h 99% 0 mm 0 W/m2
01:05 19.2 °C 19.1 °C 1019.9 hPa SSW 1.6 km/h 1.6 km/h 99% 0 mm 0 W/m2
01:10 19.2 °C 19.1 °C 1019.9 hPa SSW 1.6 km/h 1.6 km/h 99% 0 mm 0 W/m2
01:15 19.2 °C 19.1 °C 1019.9 hPa SSW 1.6 km/h 1.6 km/h 99% 0 mm 0 W/m2
01:25 19.2 °C 19.1 °C 1019.9 hPa SSW 1.6 km/h 1.6 km/h 99% 0 mm 0 W/m2
01:30 19.2 °C 19.1 °C 1019.9 hPa SSW 1.6 km/h 1.6 km/h 99% 0 mm 0 W/m2
01:35 19.2 °C 19.1 °C 1019.9 hPa SSW 1.6 km/h 1.6 km/h 99% 0 mm 0 W/m2
01:40 19.2 °C 19.1 °C 1019.9 hPa SSW 1.6 km/h 1.6 km/h 99% 0 mm 0 W/m2
01:45 19.2 °C 19.1 °C 1019.9 hPa SSW 1.6 km/h 1.6 km/h 99% 0 mm 0 W/m2
01:50 19.2 °C 19.1 °C 1019.9 hPa SSW 1.6 km/h 1.6 km/h 99% 0 mm 0 W/m2
01:55 19.2 °C 19.1 °C 1019.9 hPa SSW 1.6 km/h 1.6 km/h 99% 0 mm 0 W/m2
02:00 19.2 °C 19.1 °C 1019.9 hPa SSW 1.6 km/h 1.6 km/h 99% 0 mm 0 W/m2
02:05 19.2 °C 19.1 °C 1019.9 hPa SSW 1.6 km/h 1.6 km/h 99% 0 mm 0 W/m2
02:10 19.2 °C 19.1 °C 1019.9 hPa SSW 1.6 km/h 1.6 km/h 99% 0 mm 0 W/m2
02:15 19.2 °C 19.1 °C 1019.9 hPa SSW 1.6 km/h 1.6 km/h 99% 0 mm 0 W/m2
02:20 19.2 °C 19.1 °C 1019.9 hPa SSW 1.6 km/h 1.6 km/h 99% 0 mm 0 W/m2
02:25 19.2 °C 19.1 °C 1019.9 hPa SSW 1.6 km/h 1.6 km/h 99% 0 mm 0 W/m2
02:30 19.2 °C 19.1 °C 1019.9 hPa SSW 1.6 km/h 1.6 km/h 99% 0 mm 0 W/m2
02:35 19.2 °C 19.1 °C 1019.9 hPa SSW 1.6 km/h 1.6 km/h 99% 0 mm 0 W/m2
02:40 19.2 °C 19.1 °C 1019.9 hPa SSW 1.6 km/h 1.6 km/h 99% 0 mm 0 W/m2
02:45 19.2 °C 19.1 °C 1019.9 hPa SSW 1.6 km/h 1.6 km/h 99% 0 mm 0 W/m2
02:50 19.2 °C 19.1 °C 1019.9 hPa SSW 1.6 km/h 1.6 km/h 99% 0 mm 0 W/m2
02:55 19.2 °C 19.1 °C 1019.9 hPa SSW 1.6 km/h 1.6 km/h 99% 0 mm 0 W/m2
03:00 19.2 °C 19.1 °C 1019.9 hPa SSW 1.6 km/h 1.6 km/h 99% 0 mm 0 W/m2
03:05 19.2 °C 19.1 °C 1019.9 hPa SSW 1.6 km/h 1.6 km/h 99% 0 mm 0 W/m2
03:10 19.2 °C 19.1 °C 1019.9 hPa SSW 1.6 km/h 1.6 km/h 99% 0 mm 0 W/m2
03:15 19.2 °C 19.1 °C 1019.9 hPa SSW 1.6 km/h 1.6 km/h 99% 0 mm 0 W/m2
03:20 19.2 °C 19.1 °C 1019.9 hPa SSW 1.6 km/h 1.6 km/h 99% 0 mm 0 W/m2
03:25 19.2 °C 19.1 °C 1019.9 hPa SSW 1.6 km/h 1.6 km/h 99% 0 mm 0 W/m2
03:30 19.2 °C 19.1 °C 1019.9 hPa SSW 1.6 km/h 1.6 km/h 99% 0 mm 0 W/m2
03:35 19.2 °C 19.1 °C 1019.9 hPa SSW 1.6 km/h 1.6 km/h 99% 0 mm 0 W/m2
03:40 19.2 °C 19.1 °C 1019.9 hPa SSW 1.6 km/h 1.6 km/h 99% 0 mm 0 W/m2
03:45 19.2 °C 19.1 °C 1019.9 hPa SSW 1.6 km/h 1.6 km/h 99% 0 mm 0 W/m2
03:50 19.2 °C 19.1 °C 1019.9 hPa SSW 1.6 km/h 1.6 km/h 99% 0 mm 0 W/m2
03:55 19.2 °C 19.1 °C 1019.9 hPa SSW 1.6 km/h 1.6 km/h 99% 0 mm 0 W/m2
04:00 19.2 °C 19.1 °C 1019.9 hPa SSW 1.6 km/h 1.6 km/h 99% 0 mm 0 W/m2
04:05 19.2 °C 19.1 °C 1019.9 hPa SSW 1.6 km/h 1.6 km/h 99% 0 mm 0 W/m2
04:10 19.2 °C 19.1 °C 1019.9 hPa SSW 1.6 km/h 1.6 km/h 99% 0 mm 0 W/m2
04:15 19.2 °C 19.1 °C 1019.9 hPa SSW 1.6 km/h 1.6 km/h 99% 0 mm 0 W/m2
04:20 19.2 °C 19.1 °C 1019.9 hPa SSW 1.6 km/h 1.6 km/h 99% 0 mm 0 W/m2
04:30 19.2 °C 19.1 °C 1019.9 hPa SSW 1.6 km/h 1.6 km/h 99% 0 mm 0 W/m2
04:35 19.2 °C 19.1 °C 1019.9 hPa SSW 1.6 km/h 1.6 km/h 99% 0 mm 0 W/m2
04:40 19.2 °C 19.1 °C 1019.9 hPa SSW 1.6 km/h 1.6 km/h 99% 0 mm 0 W/m2
04:45 19.2 °C 19.1 °C 1019.9 hPa SSW 1.6 km/h 1.6 km/h 99% 0 mm 0 W/m2
04:52 17.7 °C 17.5 °C 1019.9 hPa SSW 2.4 km/h 1.8 km/h 99% 0 mm 0 W/m2
04:59 16.1 °C 15.9 °C 1019.2 hPa SSW 4 km/h 3.2 km/h 99% 0 mm 0 W/m2
05:04 16.1 °C 15.9 °C 1019.2 hPa SE 5 km/h 4.8 km/h 99% 0 mm 0 W/m2
05:09 16.1 °C 15.9 °C 1019.2 hPa NE 5.6 km/h 4.8 km/h 99% 0 mm 0 W/m2
05:14 16.1 °C 15.9 °C 1019.2 hPa NE 6.1 km/h 8 km/h 99% 0 mm 0 W/m2
05:19 16.1 °C 15.9 °C 1019.2 hPa NE 4.5 km/h 8 km/h 99% 0 mm 0 W/m2
05:24 16.1 °C 15.9 °C 1019.2 hPa NE 6.8 km/h 4.8 km/h 99% 0 mm 0 W/m2
05:29 16.1 °C 15.9 °C 1019.2 hPa NE 4.7 km/h 8 km/h 99% 0 mm 1 W/m2
05:33 16.1 °C 15.9 °C 1019.2 hPa NE 5.6 km/h 6.4 km/h 99% 0 mm 2 W/m2
05:39 16.1 °C 15.9 °C 1019.5 hPa NE 6.8 km/h 8 km/h 99% 0 mm 4 W/m2
05:44 16.1 °C 15.9 °C 1019.5 hPa ENE 7.1 km/h 8 km/h 99% 0 mm 5 W/m2
05:49 16.1 °C 15.9 °C 1019.5 hPa East 9.3 km/h 5.8 km/h 99% 0 mm 7 W/m2
05:54 15.9 °C 15.8 °C 1019.5 hPa East 7.2 km/h 9.7 km/h 99% 0 mm 9 W/m2
05:59 15.9 °C 15.7 °C 1019.5 hPa ESE 6 km/h 8 km/h 99% 0 mm 14 W/m2
06:04 15.8 °C 15.7 °C 1019.5 hPa ESE 5.1 km/h 8 km/h 99% 0 mm 18 W/m2
06:09 15.8 °C 15.7 °C 1019.5 hPa ESE 4 km/h 4.8 km/h 99% 0 mm 25 W/m2
06:14 15.8 °C 15.7 °C 1019.5 hPa ESE 4 km/h 4.8 km/h 99% 0 mm 28 W/m2
06:19 15.8 °C 15.7 °C 1019.5 hPa East 5.3 km/h 6.4 km/h 99% 0 mm 31 W/m2
06:24 15.9 °C 15.7 °C 1019.5 hPa East 5 km/h 6.4 km/h 99% 0 mm 33 W/m2
06:28 15.8 °C 15.7 °C 1019.5 hPa ENE 2.3 km/h 4.8 km/h 99% 0 mm 36 W/m2
06:34 15.9 °C 15.7 °C 1019.5 hPa NE 4.2 km/h 3.5 km/h 99% 0 mm 45 W/m2
06:39 15.8 °C 15.7 °C 1019.9 hPa ENE 4.2 km/h 4.8 km/h 99% 0 mm 55 W/m2
06:44 15.8 °C 15.7 °C 1019.9 hPa ENE 4.8 km/h 4.8 km/h 99% 0 mm 54 W/m2
06:49 15.9 °C 15.7 °C 1019.9 hPa NE 3.5 km/h 3.5 km/h 99% 0 mm 55 W/m2
06:54 15.8 °C 15.7 °C 1019.9 hPa ENE 4.7 km/h 6.4 km/h 99% 0 mm 58 W/m2
06:58 15.9 °C 15.7 °C 1019.9 hPa NE 2.9 km/h 4.8 km/h 99% 0 mm 63 W/m2
07:04 15.9 °C 15.8 °C 1019.9 hPa NNE 3.5 km/h 4.8 km/h 99% 0 mm 68 W/m2
07:09 16.1 °C 15.9 °C 1019.9 hPa NE 4.8 km/h 4.8 km/h 99% 0 mm 76 W/m2
07:14 16.2 °C 16 °C 1019.9 hPa NE 4.3 km/h 4.8 km/h 99% 0 mm 75 W/m2
07:19 16.2 °C 16.1 °C 1019.9 hPa NE 3.4 km/h 4.8 km/h 99% 0 mm 82 W/m2
07:24 16.2 °C 16.1 °C 1019.9 hPa NNE 4.3 km/h 6.4 km/h 99% 0 mm 153 W/m2
07:29 16.3 °C 16.2 °C 1019.9 hPa NNE 2.9 km/h 4.8 km/h 99% 0 mm 157 W/m2
07:31 16.4 °C 16.3 °C 1019.9 hPa NNE 5.6 km/h 3.5 km/h 99% 0 mm 152 W/m2
Knjazevac, Serbia
Compliments of Weather Underground - 2 mb